S59MA-6 Weather Reports


Display with metric or nautical units.
time (UTC)temp
F
wind
direction
speed
MPH
gust
MPH
rain 1hr
in
rain 24hr
in
rain mn
in
humidity
%
barometer
mb
20181113155841 56 248 0.0 0.0 0.04 1.26 0.00 80 1023.7
20181113155341 56 248 0.0 0.0 0.04 1.26 0.00 80 1023.6
20181113154841 56 248 0.0 0.0 0.04 1.26 0.00 79 1023.6
20181113154341 56 248 0.0 0.0 0.04 1.26 0.00 79 1023.4
20181113153841 57 248 0.0 0.0 0.04 1.26 0.00 78 1023.3
20181113153341 57 248 0.0 0.0 0.04 1.26 0.00 78 1023.1
20181113152841 57 248 0.0 0.0 0.06 1.26 0.00 78 1023.3
20181113152341 57 248 0.0 0.0 0.06 1.26 0.00 78 1023.2
20181113151846 58 248 0.0 0.0 0.04 1.24 0.00 78 1023.2
20181113151341 58 248 0.0 0.0 0.04 1.24 0.00 77 1023.2
20181113150841 58 248 0.0 0.0 0.02 1.22 0.00 77 1023.1
20181113150342 58 248 0.0 0.0 0.02 1.22 0.00 77 1023.1
20181113145841 58 248 0.0 0.0 0.02 1.22 0.00 77 1023.1
20181113145341 58 248 0.0 0.0 0.04 1.22 0.00 77 1023.1
20181113144841 58 248 0.0 0.0 0.06 1.22 0.00 77 1023.0
20181113144341 59 248 0.0 0.0 0.06 1.22 0.00 77 1022.9
20181113143841 59 248 0.0 0.0 0.06 1.22 0.00 76 1022.8
20181113143341 59 248 0.0 0.0 0.04 1.20 0.00 76 1022.8
20181113142841 59 248 0.0 0.0 0.06 1.20 0.00 76 1022.8
20181113142341 59 248 0.0 0.0 0.06 1.20 0.00 76 1022.8
20181113141845 59 248 0.0 0.0 0.06 1.20 0.00 76 1022.8
20181113141341 59 248 0.0 0.0 0.06 1.20 0.00 76 1022.8
20181113140841 59 248 0.0 0.0 0.06 1.20 0.00 76 1022.8
20181113140341 59 248 0.0 0.0 0.06 1.20 0.00 75 1022.7
20181113135841 59 248 0.0 0.0 0.04 1.18 0.00 75 1022.7
20181113135341 59 248 0.0 0.0 0.02 1.16 0.00 75 1022.7
20181113134841 59 248 0.0 0.0 0.04 1.16 0.00 75 1022.6
20181113134341 59 248 0.0 0.0 0.04 1.16 0.00 75 1022.7
20181113133841 60 248 0.0 0.0 0.04 1.16 0.00 75 1022.7
20181113133345 60 248 0.0 0.0 0.04 1.14 0.00 75 1022.6
20181113132841 60 248 0.0 0.0 0.04 1.14 0.00 75 1022.6
20181113131342 60 248 0.0 0.0 0.04 1.14 0.00 75 1022.4
20181113130842 60 248 0.0 0.0 0.06 1.16 0.00 75 1022.5
20181113130342 60 248 0.0 0.0 0.06 1.16 0.00 75 1022.3
20181113125842 60 248 0.0 0.0 0.06 1.16 0.00 75 1022.5
20181113125342 60 248 0.0 0.0 0.04 1.14 0.00 75 1022.4
20181113124842 60 248 0.0 0.0 0.04 1.14 0.00 75 1022.5
20181113124342 60 248 0.0 0.0 0.04 1.14 0.00 76 1022.3
20181113123842 60 248 0.0 0.0 0.02 1.12 0.00 75 1022.4
20181113123342 60 248 0.0 0.0 0.02 1.12 0.00 75 1022.5
20181113122842 60 248 0.0 0.0 0.02 1.12 0.00 75 1022.6
20181113122342 60 248 0.0 0.0 0.02 1.12 0.00 75 1022.4
20181113121842 60 248 0.0 0.0 0.04 1.12 0.00 76 1022.6
20181113121342 60 248 0.0 0.0 0.04 1.10 0.00 76 1022.5
20181113120842 60 248 0.0 0.0 0.06 1.12 0.00 76 1022.4
20181113120342 60 248 0.0 0.0 0.06 1.12 0.00 76 1022.5
20181113115842 60 248 0.0 0.0 0.08 1.12 0.00 76 1022.4
20181113115342 60 248 0.0 0.0 0.08 1.12 0.00 76 1022.3
20181113114842 60 248 0.0 0.0 0.10 1.12 0.00 76 1022.6
20181113114342 60 248 0.0 0.0 0.10 1.12 0.00 76 1022.7
20181113113842 60 248 0.0 0.0 0.12 1.12 0.00 76 1022.6
20181113113342 60 248 0.0 0.0 0.14 1.12 0.00 77 1022.6
20181113112842 60 248 0.0 0.0 0.16 1.12 0.00 77 1022.5
20181113112342 60 248 0.0 0.0 0.14 1.10 0.00 77 1022.6
20181113111842 60 248 0.0 0.0 0.12 1.08 0.00 78 1022.6
20181113111342 60 248 0.0 0.0 0.12 1.08 0.00 78 1022.6
20181113110842 60 248 0.0 0.0 0.10 1.06 0.00 78 1022.7
20181113110342 60 248 0.0 0.0 0.08 1.04 0.00 78 1022.6
20181113105842 60 248 0.0 0.0 0.08 1.04 0.00 78 1022.6
20181113105342 60 248 0.0 0.0 0.06 1.02 0.00 79 1022.6
20181113104842 60 248 0.0 0.0 0.06 1.02 0.00 79 1022.6
20181113104342 60 248 0.0 0.0 0.04 1.00 0.00 79 1022.7
20181113103843 60 248 0.0 0.0 0.02 0.98 0.00 80 1022.6
20181113103342 60 248 0.0 0.0 0.02 0.96 0.00 80 1022.6
20181113102842 60 248 74.0 74.0 0.02 0.96 0.00 81 1022.7
20181113102342 59 248 0.0 0.0 0.02 0.96 0.00 81 1022.5
20181113101842 59 248 0.0 0.0 0.04 0.96 0.00 82 1022.6
20181113101342 59 248 0.0 0.0 0.04 0.96 0.00 82 1022.9
20181113100842 59 248 0.0 0.0 0.04 0.98 0.00 83 1022.8
20181113100346 59 248 0.0 0.0 0.04 0.98 0.00 83 1022.7
20181113095842 59 248 0.0 0.0 0.04 0.98 0.00 83 1022.7
20181113095342 59 248 0.0 0.0 0.04 0.98 0.00 84 1022.7
20181113094842 59 248 0.0 0.0 0.04 0.98 0.00 85 1022.8
20181113094346 59 248 0.0 0.0 0.04 0.98 0.00 87 1022.8
20181113093842 59 248 0.0 0.0 0.04 0.96 0.00 88 1022.9
20181113093342 58 248 0.0 0.0 0.04 0.96 0.00 88 1022.9
20181113092842 58 248 0.0 0.0 0.04 0.96 0.00 89 1022.9
20181113092342 58 248 0.0 0.0 0.02 0.94 0.00 90 1022.8
20181113091846 57 248 0.0 0.0 0.04 0.94 0.00 91 1022.8
20181113091342 56 248 0.0 0.0 0.04 0.94 0.00 91 1022.9
20181113090842 56 248 0.0 0.0 0.04 0.94 0.00 91 1022.8
20181113090342 56 248 0.0 0.0 0.04 0.96 0.00 91 1022.8
20181113085842 55 248 0.0 0.0 0.04 0.96 0.00 91 1022.6
20181113085343 55 248 0.0 0.0 0.06 0.96 0.00 91 1022.6
20181113084843 54 248 0.0 0.0 0.06 0.96 0.00 91 1022.5
20181113084342 54 248 0.0 0.0 0.04 0.94 0.00 92 1022.6
20181113083842 53 248 0.0 0.0 0.04 0.94 0.00 92 1022.6
20181113083343 53 248 0.0 0.0 0.04 0.94 0.00 92 1022.4
20181113082842 53 248 0.0 0.0 0.04 0.94 0.00 91 1022.5
20181113082343 52 248 0.0 0.0 0.02 0.92 0.00 91 1022.4
20181113081842 52 248 0.0 0.0 0.02 0.92 0.00 91 1022.5
20181113081342 52 248 0.0 0.0 0.02 0.92 0.00 91 1022.3
20181113080842 51 248 0.0 0.0 0.02 0.92 0.00 91 1022.4
20181113080343 51 248 0.0 0.0 0.02 0.92 0.00 91 1022.4
20181113075843 51 248 0.0 0.0 0.00 0.89 0.00 91 1022.5
20181113075343 50 248 0.0 0.0 0.02 0.89 0.00 91 1022.5
20181113074843 50 359 0.0 0.0 0.02 0.89 0.00 91 1022.7
20181113074347 50 359 0.0 0.0 0.04 0.89 0.00 91 1022.4
20181113073843 50 248 0.0 0.0 0.06 0.89 0.00 91 1022.6
20181113073347 50 248 0.0 0.0 0.06 0.89 0.00 91 1022.6
20181113072843 49 248 0.0 0.0 0.06 0.89 0.00 91 1022.6
20181113072343 49 248 0.0 0.0 0.06 0.89 0.00 91 1022.7
20181113071843 49 248 0.0 0.0 0.06 0.89 0.00 91 1022.4
20181113070843 49 248 0.0 0.0 0.06 0.92 0.00 91 1022.5
20181113070347 49 248 0.0 0.0 0.06 0.92 0.00 91 1022.5
20181113065347 49 248 0.0 0.0 0.08 0.89 0.00 91 1022.3
20181113064847 49 248 0.0 0.0 0.06 0.87 0.00 91 1022.4
20181113064343 48 359 0.0 0.0 0.04 0.85 0.00 91 1022.5
20181113063843 48 248 0.0 0.0 0.04 0.85 0.00 91 1022.5
20181113063343 48 248 0.0 0.0 0.04 0.85 0.00 91 1022.4
20181113062843 48 248 0.0 0.0 0.04 0.85 0.00 91 1022.4
20181113062343 48 248 0.0 0.0 0.04 0.85 0.00 91 1022.3
20181113061843 48 248 0.0 0.0 0.04 0.85 0.00 91 1022.3
20181113061343 47 248 0.0 0.0 0.04 0.85 0.00 91 1022.3
20181113060843 47 248 0.0 0.0 0.04 0.87 0.00 91 1022.2
20181113060343 47 248 0.0 0.0 0.02 0.85 0.00 91 1022.3
20181113055843 47 248 0.0 0.0 0.00 0.84 0.00 91 1022.2
20181113055343 47 248 0.0 0.0 0.00 0.84 0.00 91 1022.2
20181113054847 47 248 0.0 0.0 0.02 0.84 0.00 91 1022.1
20181113054343 47 248 0.0 0.0 0.04 0.84 0.00 91 1022.0
20181113053843 47 248 0.0 0.0 0.04 0.84 0.00 91 1022.0
20181113053343 47 248 0.0 0.0 0.06 0.84 0.00 91 1021.9
20181113052851 47 248 0.0 0.0 0.06 0.84 0.00 91 1022.0
20181113052343 47 248 0.0 0.0 0.06 0.84 0.00 91 1021.9
20181113051843 47 248 0.0 0.0 0.06 0.84 0.00 91 1021.9
20181113051343 47 248 0.0 0.0 0.06 0.84 0.00 91 1021.8
20181113050843 47 248 0.0 0.0 0.06 0.84 0.00 91 1021.8
20181113050343 47 248 0.0 0.0 0.08 0.87 0.00 91 1021.8
20181113045847 47 248 0.0 0.0 0.08 0.87 0.00 91 1021.8
20181113045343 47 248 0.0 0.0 0.06 0.85 0.00 91 1021.8
20181113044843 47 248 0.0 0.0 0.04 0.84 0.00 91 1021.8
20181113044343 47 248 0.0 0.0 0.04 0.84 0.00 91 1021.9
20181113043843 47 248 0.0 0.0 0.02 0.82 0.00 91 1021.9
20181113043343 47 248 0.0 0.0 0.04 0.82 0.00 91 1022.0
20181113042843 47 248 0.0 0.0 0.04 0.82 0.00 91 1022.1
20181113042343 47 248 0.0 0.0 0.04 0.82 0.00 91 1022.2
20181113041847 47 248 0.0 0.0 0.04 0.82 0.00 91 1022.2
20181113041343 47 248 0.0 0.0 0.06 0.82 0.00 91 1022.2
20181113040843 47 248 0.0 0.0 0.04 0.80 0.00 91 1022.2
20181113040343 47 248 0.0 0.0 0.04 0.92 0.00 91 1022.1
20181113035844 47 248 0.0 0.0 0.04 0.92 0.00 91 1022.2
20181113035343 47 359 0.0 0.0 0.04 0.92 0.00 90 1022.1
20181113034843 47 359 0.0 0.0 0.04 0.92 0.00 90 1022.2
20181113034343 46 248 0.0 0.0 0.06 0.92 0.00 90 1022.1
20181113033843 46 248 0.0 0.0 0.04 0.89 0.00 90 1022.1
20181113033343 46 248 0.0 0.0 0.06 0.89 0.00 90 1022.0
20181113032844 46 248 0.0 0.0 0.06 0.89 0.00 90 1022.1
20181113032343 46 248 0.0 0.0 0.06 0.89 0.00 90 1022.1
20181113031843 46 248 0.0 0.0 0.06 0.87 0.00 90 1022.3
20181113031343 46 248 0.0 0.0 0.08 0.87 0.00 90 1022.2
20181113030843 46 248 0.0 0.0 0.10 0.87 0.00 90 1022.1
20181113030344 46 248 0.0 0.0 0.10 0.98 0.00 90 1022.3
20181113025844 46 248 0.0 0.0 0.10 0.98 0.00 90 1022.2
20181113025344 46 248 0.0 0.0 0.12 0.98 0.00 90 1022.2
20181113024844 46 248 0.0 0.0 0.12 0.96 0.00 90 1022.3
20181113024348 46 359 0.0 0.0 0.12 0.96 0.00 90 1022.3
20181113023844 46 359 0.0 0.0 0.12 0.94 0.00 90 1022.4
20181113023344 46 248 0.0 0.0 0.12 0.94 0.00 90 1022.4
20181113022848 46 248 0.0 0.0 0.12 0.94 0.00 90 1022.2
20181113022344 46 248 0.0 0.0 0.12 0.92 0.00 90 1022.3
20181113021844 47 359 0.0 0.0 0.10 0.89 0.00 89 1022.2
20181113021344 47 248 0.0 0.0 0.08 0.87 0.00 89 1022.3
20181113020844 47 248 0.0 0.0 0.10 0.87 0.00 89 1022.1
20181113020344 47 248 0.0 0.0 0.10 0.89 0.00 89 1022.3
20181113015844 47 248 0.0 0.0 0.08 0.87 0.00 89 1022.3
20181113015344 47 248 0.0 0.0 0.08 0.85 0.00 89 1022.4
20181113014844 47 248 0.0 0.0 0.08 0.85 0.00 89 1022.2
20181113014344 47 248 0.0 0.0 0.08 0.84 0.00 89 1022.5
20181113013848 47 248 0.0 0.0 0.08 0.84 0.00 89 1022.4
20181113013344 47 248 0.0 0.0 0.10 0.84 0.00 89 1022.5
20181113012844 47 248 0.0 0.0 0.10 0.84 0.00 89 1022.4
20181113012344 47 248 0.0 0.0 0.10 0.82 0.00 89 1022.5
20181113011844 47 248 0.0 0.0 0.10 0.82 0.00 89 1022.4
20181113011348 48 248 0.0 0.0 0.10 0.82 0.00 89 1022.4
20181113010844 48 248 0.0 0.0 0.08 0.80 0.00 89 1022.4
20181113010344 48 248 0.0 0.0 0.10 0.84 0.00 89 1022.5
20181113005844 48 248 0.0 0.0 0.08 0.82 0.00 89 1022.3
20181113005348 48 248 0.0 0.0 0.08 0.82 0.00 89 1022.4
20181113004844 48 248 0.0 0.0 0.06 0.80 0.00 89 1022.4
20181113004344 49 248 0.0 0.0 0.06 0.80 0.00 89 1022.3
20181113003844 49 248 0.0 0.0 0.04 0.77 0.00 89 1022.3
20181113003344 49 248 0.0 0.0 0.04 0.77 0.00 89 1022.3
20181113002844 49 248 0.0 0.0 0.04 0.75 0.00 89 1022.3
20181113002344 49 248 0.0 0.0 0.04 0.75 0.00 89 1022.2
20181113001852 50 248 0.0 0.0 0.04 0.75 0.00 89 1022.3
20181113001344 50 248 0.0 0.0 0.06 0.75 0.00 89 1022.3
20181113000844 50 248 0.0 0.0 0.04 0.73 0.00 88 1022.3
20181113000344 50 248 0.0 0.0 0.06 0.80 0.00 88 1022.4
20181112235848 50 248 0.0 0.0 0.06 0.80 0.00 88 1022.4
20181112235344 50 248 0.0 0.0 0.08 0.80 0.00 88 1022.4
20181112234844 50 248 0.0 0.0 0.08 0.80 0.00 88 1022.3
20181112234344 50 248 0.0 0.0 0.08 0.80 0.00 88 1022.3
20181112233844 50 248 0.0 0.0 0.10 0.80 0.00 88 1022.4
20181112233344 50 248 0.0 0.0 0.08 0.77 0.00 88 1022.3
20181112232844 50 248 0.0 0.0 0.08 0.77 0.00 88 1022.4
20181112232344 50 248 0.0 0.0 0.08 0.77 0.00 88 1022.3
20181112231844 51 248 0.0 0.0 0.06 0.75 0.00 88 1022.2
20181112231345 51 248 0.0 0.0 0.08 0.75 0.00 88 1022.3
20181112230844 51 248 0.0 0.0 0.06 0.80 0.00 88 1022.3
20181112230344 51 248 0.0 0.0 0.06 0.80 0.00 87 1022.3
20181112225844 51 248 0.0 0.0 0.04 0.77 0.00 87 1022.3
20181112225348 51 248 0.0 0.0 0.04 0.77 0.00 87 1022.2
20181112224844 51 248 0.0 0.0 0.04 0.77 0.00 87 1022.3
20181112224344 51 248 0.0 0.0 0.02 0.75 0.00 87 1022.2
20181112223844 51 248 0.0 0.0 0.02 0.75 0.00 87 1022.2
20181112223348 51 248 0.0 0.0 0.02 0.75 0.00 86 1022.1
20181112222844 52 248 0.0 0.0 0.02 0.75 0.00 86 1022.3
20181112222344 52 248 0.0 0.0 0.02 0.75 0.00 86 1022.2
20181112221844 52 248 0.0 0.0 0.00 0.73 0.00 86 1022.3
20181112221348 52 248 0.0 0.0 0.00 0.73 0.00 86 1022.2
20181112220844 52 248 0.0 0.0 0.00 0.73 0.00 86 1022.3
20181112220345 52 248 0.0 0.0 0.00 0.75 0.00 86 1022.2
20181112215845 52 248 0.0 0.0 0.00 0.75 0.00 86 1022.2
20181112215345 52 248 0.0 0.0 0.00 0.75 0.00 85 1022.2
20181112214845 53 248 0.0 0.0 0.00 0.75 0.00 85 1022.1
20181112214345 53 248 0.0 0.0 0.00 0.75 0.00 85 1022.2
20181112213845 53 248 0.0 0.0 0.00 0.75 0.00 85 1022.2
20181112213345 53 248 0.0 0.0 0.00 0.75 0.00 85 1022.2
20181112212845 53 248 0.0 0.0 0.02 0.75 0.00 85 1022.3
20181112212345 53 248 0.0 0.0 0.02 0.75 0.00 85 1022.3
20181112211845 53 248 0.0 0.0 0.02 0.75 0.00 85 1022.3
20181112211345 53 248 0.0 0.0 0.02 0.75 0.00 85 1022.4
20181112210845 53 248 0.0 0.0 0.02 0.75 0.00 85 1022.4
20181112210345 53 248 0.0 0.0 0.02 0.80 0.00 85 1022.2
20181112205845 53 248 0.0 0.0 0.04 0.80 0.00 85 1022.4
20181112205345 53 248 0.0 0.0 0.06 0.80 0.00 85 1022.3
20181112204845 53 248 0.0 0.0 0.06 0.80 0.00 84 1022.3
20181112204345 53 248 0.0 0.0 0.08 0.80 0.00 84 1022.3
20181112203845 53 248 0.0 0.0 0.08 0.80 0.00 84 1022.4
20181112203345 53 248 0.0 0.0 0.08 0.77 0.00 84 1022.3
20181112202845 53 248 0.0 0.0 0.08 0.77 0.00 84 1022.3
20181112202345 53 248 0.0 0.0 0.08 0.77 0.00 84 1022.3
20181112201845 53 248 0.0 0.0 0.08 0.77 0.00 84 1022.2
20181112201345 53 248 0.0 0.0 0.10 0.77 0.00 84 1022.2
20181112200845 54 248 0.0 0.0 0.10 0.77 0.00 84 1022.3
20181112200345 54 248 0.0 0.0 0.08 0.80 0.00 83 1022.3
20181112195845 54 248 0.0 0.0 0.06 0.77 0.00 83 1022.1
20181112195345 55 248 0.0 0.0 0.06 0.77 0.00 83 1022.2
20181112194845 55 248 0.0 0.0 0.04 0.75 0.00 83 1022.2
20181112194345 55 248 0.0 0.0 0.04 0.75 0.00 83 1022.2
20181112193845 55 248 0.0 0.0 0.02 0.73 0.00 83 1022.2
20181112193345 55 248 0.0 0.0 0.02 0.73 0.00 83 1022.1
20181112192845 55 248 0.0 0.0 0.02 0.73 0.00 83 1022.1
20181112192345 55 248 0.0 0.0 0.02 0.73 0.00 83 1022.2
20181112191845 55 248 0.0 0.0 0.00 0.71 0.00 83 1022.0
20181112191345 55 248 0.0 0.0 0.02 0.71 0.00 83 1022.2
20181112190845 55 248 0.0 0.0 0.02 0.75 0.00 83 1022.0
20181112190345 55 248 0.0 0.0 0.02 0.75 0.00 83 1021.9
20181112185849 55 248 0.0 0.0 0.02 0.75 0.00 83 1021.9
20181112185345 55 248 0.0 0.0 0.02 0.75 0.00 82 1021.8
20181112184845 55 248 0.0 0.0 0.02 0.75 0.00 82 1021.8
20181112184345 55 248 0.0 0.0 0.02 0.75 0.00 82 1021.9
20181112183845 55 248 0.0 0.0 0.02 0.75 0.00 82 1021.7
20181112183345 55 248 0.0 0.0 0.02 0.75 0.00 81 1021.8
20181112182845 55 248 0.0 0.0 0.02 0.75 0.00 81 1021.9
20181112182345 56 248 0.0 0.0 0.02 0.75 0.00 81 1021.9
20181112181845 56 248 0.0 0.0 0.00 0.73 0.00 81 1021.8
20181112181345 56 248 0.0 0.0 0.02 0.73 0.00 81 1021.9
20181112180845 56 248 0.0 0.0 0.02 0.73 0.00 80 1021.8
20181112180349 56 248 0.0 0.0 0.02 0.75 0.00 80 1021.8
20181112175845 56 248 0.0 0.0 0.02 0.75 0.00 80 1021.8
20181112175345 56 248 0.0 0.0 0.02 0.75 0.00 79 1021.8
20181112174847 57 248 0.0 0.0 0.02 0.75 0.00 78 1021.8
20181112174345 57 248 0.0 0.0 0.02 0.75 0.00 78 1021.8
20181112173845 57 248 0.0 0.0 0.02 0.75 0.00 78 1021.9
20181112173345 58 248 0.0 0.0 0.02 0.75 0.00 78 1021.8
20181112172845 58 248 0.0 0.0 0.02 0.75 0.00 77 1021.8
20181112172345 58 248 0.0 0.0 0.02 0.75 0.00 77 1022.0
20181112171845 58 248 0.0 0.0 0.00 0.73 0.00 76 1021.8
20181112171345 59 225 0.0 0.0 0.00 0.73 0.00 76 1022.0
20181112170846 59 225 0.0 0.0 0.00 0.73 0.00 76 1021.9
20181112170345 59 225 0.0 0.0 0.00 0.75 0.00 76 1021.9
20181112165846 59 225 0.0 0.0 0.00 0.75 0.00 75 1021.9
20181112165346 59 225 0.0 0.0 0.00 0.75 0.00 75 1021.7
20181112164846 59 225 0.0 0.0 0.00 0.75 0.00 75 1021.9
20181112164346 59 225 0.0 0.0 0.00 0.75 0.00 75 1021.8
20181112163846 59 225 0.0 0.0 0.00 0.75 0.00 75 1021.8
20181112163350 60 225 0.0 0.0 0.00 0.75 0.00 75 1021.9
20181112162846 60 225 0.0 0.0 0.00 0.75 0.00 75 1021.8
20181112162346 60 225 0.0 0.0 0.00 0.75 0.00 75 1021.9
20181112161846 60 225 0.0 0.0 0.00 0.75 0.00 75 1021.7
20181112161346 60 225 0.0 0.0 0.00 0.75 0.00 74 1021.9
20181112160846 60 225 0.0 0.0 0.00 0.75 0.00 74 1021.8
20181112160346 60 225 0.0 0.0 0.00 0.80 0.00 74 1021.9